Content
SEND FEEDBACK

Daily
Averages
Monthly
Summary
United States of America

UKIAH, CALIFORNIA


Home > North America > United States > California
Elevation: 615 feet     Latitude: 39 08N     Longitude: 123 12W

WEATHER
 
SELECT A DAY
Number of Records: 216,847;   Date Range: 1/1/95 - 7/7/14
 
SHARE

PRINT THIS DATA

[ ← Previous Day ]
WEATHER ALMANAC - FEBRUARY 14, 2013
[ Next Day → ]
[ °C ]   °F
Weather ElementAverageHighLow
Temperature52.4 °F75.9 °F (3:56 pm)37 °F (4:56 am)
Dewpoint38.7 °F41 °F (9:56 am)35.1 °F (3:56 am)
Humidity65.3 %96 % (5:56 am)23 % (3:56 pm)
Barometer30.21 in30.28 in (7:56 am)30.14 in (2:56 pm)
Wind Speed0.6 mph3.5 mph (1:56 am)
Weather ElementAverage
Visibility10 mi
Wind DirectionNNE (33.6 °)

Weather ElementTotal
Precipitation---
Heating Degree Days8.6 (Base 65)
Growing Degree Days6.5 (Base 50)
Averaged from 22 records on February 14, 2013
WEATHER CONDITIONS BREAKOUT
WIND DIRECTION BREAKOUT
WEATHER BY HOUR - FEBRUARY 14, 2013
[ °C ]   °F
Local TimeTemperatureDewpointHumidityBarometerVisibilityWind DirectionWind SpeedGust SpeedPrecipitationEventsConditions
1:56 AM42.1 °F39.0 °F89 %30.26 in10.0 miNNW (330°)3.5 mphClear
2:56 AM39.0 °F37.0 °F93 %30.25 in10.0 miCalmClear
3:56 AM37.9 °F35.1 °F89 %30.24 in10.0 miCalmClear
4:56 AM37.0 °F35.1 °F93 %30.25 in10.0 miCalmClear
5:56 AM37.0 °F36.0 °F96 %30.26 in10.0 miCalmClear
7:56 AM39.0 °F37.0 °F93 %30.28 in10.0 miCalmClear
8:56 AM44.1 °F39.9 °F85 %30.28 in10.0 miCalmClear
9:56 AM51.1 °F41.0 °F68 %30.27 in10.0 miCalmClear
10:56 AM57.0 °F39.9 °F53 %30.25 in10.0 miCalmClear
11:56 AM63.0 °F39.9 °F43 %30.22 in10.0 miCalmClear
12:56 PM68.0 °F39.9 °F36 %30.18 in10.0 miCalmClear
1:56 PM72.0 °F39.0 °F30 %30.15 in10.0 miCalmClear
2:56 PM73.9 °F39.0 °F28 %30.14 in10.0 miSE (130°)3.5 mphClear
3:56 PM75.9 °F36.0 °F23 %30.14 in10.0 miVariable3.5 mphClear
4:56 PM64.9 °F41.0 °F42 %30.14 in10.0 miWest (280°)3.5 mphClear
5:56 PM61.0 °F39.9 °F46 %30.16 in10.0 miCalmClear
6:56 PM55.9 °F41.0 °F57 %30.18 in10.0 miCalmClear
7:56 PM50.0 °F41.0 °F71 %30.19 in10.0 miCalmClear
8:56 PM50.0 °F41.0 °F71 %30.21 in10.0 miCalmClear
9:56 PM48.9 °F39.0 °F69 %30.21 in10.0 miCalmClear
10:56 PM44.1 °F37.9 °F79 %30.22 in10.0 miCalmClear
11:56 PM41.0 °F36.0 °F82 %30.23 in10.0 miCalmClear
Hourly data recorded from KUKI, located miles away from Ukiah, California







STORIES FROM OUR PARTNERS